This demonstration page uses our WeatherBlox Daily Observations layout. Learn more.

Left ArrowRight Arrow

Hourly Observations for March 1, 2020

Temp ( °F °C ) Dew Point ( °F °C ) Humidity (%) Winds ( mph kmh ) Pressure ( in mb ) Visibility ( mi km ) Precip ( " mm )
12:53 am 00:53 Clear 48 8.9 21 -6.1 34 34 N 9 15 30.01 1016 10 16 0.00 0.00
1:53 am 01:53 Clear 48 8.9 22 -5.6 36 36 N 9 15 30.02 1017 10 16 0.00 0.00
2:53 am 02:53 Clear 48 8.9 24 -4.4 39 39 N 9 15 30.02 1017 10 16 0.00 0.00
3:53 am 03:53 Clear 48 8.9 24 -4.4 39 39 NNW 12 19 30.01 1016 10 16 0.00 0.00
4:53 am 04:53 Clear 48 8.9 24 -4.4 39 39 N 12 19 30.01 1016 10 16 0.00 0.00
5:53 am 05:53 Mostly Clear 48 8.9 23 -5 37 37 N 13 20 30.03 1017 10 16 0.00 0.00
6:53 am 06:53 Sunny 48 8.9 23 -5 37 37 N 16 26 30.04 1017 10 16 0.00 0.00
7:53 am 07:53 Sunny 49 9.4 23 -5 36 36 N 21 33 30.06 1018 10 16 0.00 0.00
8:53 am 08:53 Sunny 51 10.6 22 -5.6 32 32 N 22 35 30.09 1019 10 16 0.00 0.00
9:53 am 09:53 Sunny 53 11.7 21 -6.1 28 28 N 28 44 30.09 1019 10 16 0.00 0.00
10:53 am 10:53 Sunny 56 13.3 22 -5.6 27 27 NNE 18 30 30.09 1019 10 16 0.00 0.00
11:53 am 11:53 Sunny 57 13.9 20 -6.7 24 24 NNE 25 41 30.08 1019 10 16 0.00 0.00
12:53 pm 12:53 Sunny 59 15 19 -7.2 21 21 NNE 26 43 30.07 1018 10 16 0.00 0.00
1:53 pm 13:53 Sunny 60 15.6 17 -8.3 19 19 NE 24 39 30.05 1018 10 16 0.00 0.00
2:53 pm 14:53 Mostly Sunny 61 16.1 15 -9.4 17 17 NNE 25 41 30.05 1018 10 16 0.00 0.00
3:53 pm 15:53 Sunny 61 16.1 10 -12.2 13 13 NE 22 35 30.06 1018 10 16 0.00 0.00
4:53 pm 16:53 Sunny 59 15 9 -12.8 13 13 NNE 23 37 30.08 1019 10 16 0.00 0.00
5:53 pm 17:53 Sunny 57 13.9 12 -11.1 17 17 NNE 17 28 30.11 1020 10 16 0.00 0.00
6:53 pm 18:53 Clear 55 12.8 14 -10 20 20 N 10 17 30.14 1021 10 16 0.00 0.00
7:53 pm 19:53 Clear 55 12.8 13 -10.6 19 19 N 16 26 30.15 1021 10 16 0.00 0.00
8:53 pm 20:53 Clear 54 12.2 13 -10.6 19 19 NNE 15 24 30.17 1022 10 16 0.00 0.00
9:53 pm 21:53 Clear 53 11.7 13 -10.6 20 20 N 7 11 30.20 1023 10 16 0.00 0.00
10:53 pm 22:53 Clear 51 10.6 13 -10.6 22 22 NW 6 9 30.21 1023 10 16 0.00 0.00
11:53 pm 23:53 Clear 51 10.6 11 -11.7 20 20 N 7 11 30.20 1023 10 16 0.00 0.00

Powered by AerisWeather